Location: Angwan Shehu
(11.2514°N, 7.4613°E)
Time: 04:36:53
(UTC+00:00)

Vanguard 3 - Pass Details

Date: 29 July 2021
Orbit: 510 x 3260 km, 33.3° (Epoch: 16 September)

Event Time Altitude Azimuth Distance (km) Brightness Sun altitude
Exits shadow 04:02:37 12° 200° (SSW) 2,889 9.6 -17.9°
Drops below altitude 10° 04:03:32 10° 193° (SSW) 2,956 9.7 -17.7°
Sets 04:06:54 0° 170° (S) 3,514 10.3 -17.0°
